Location: Unspecified
(0.0000°N, 0.0000°E)
Time: 01:13:01
(UTC+00:00)

S-56A Canister/Altair - Pass Details

Date: 23 May 2026
Orbit: 632 x 2484 km, 38.9° (Epoch: 9 June)

Event Time Altitude Azimuth Distance (km) Brightness Sun altitude
Exits shadow 04:26:44 21° 213° (SSW) 3,100 10.1 -21.0°
Maximum altitude 04:27:24 22° 208° (SSW) 3,140 10.2 -20.8°
Drops below altitude 10° 04:35:47 10° 164° (SSE) 4,541 11.4 -18.9°
Sets 04:41:16 0° 150° (SSE) 5,828 12.1 -17.6°
